Weather Roundup
Issued by NWS Chicago, IL

Home | Current Version | Previous Version | Text Only | Print | Product List | Glossary Off
Versions: 1 2 3 4 5 6 7 8 9 10 11 12 13 14 15 16 17 18 19 20 21 22 23 24 25 26 27 28 29 30 31 32 33 34 35 36 37 38 39 40 41 42 43 44 45 46 47 48 49 50

000
NZUS59 KLOT 211604
HRRLOT

CHICAGO AREA WEATHER ROUNDUP
NATIONAL WEATHER SERVICE CHICAGO/ROMEOVILLE IL
1100 AM CDT THU SEP 21 2017

NOTE: "FAIR" INDICATES FEW OR NO CLOUDS BELOW 12,000 FEET WITH NO
SIGNIFICANT WEATHER AND/OR OBSTRUCTIONS TO VISIBILITY.

* THESE STATIONS ARE NOT UNDER NWS QUALITY CONTROL. THEY ALSO MAY NOT
  REPORT WEATHER SUCH AS PRECIPITATION OR FOG.

ILZ005-006-012>014-019>023-211700-
NORTHEAST ILLINOIS

CITY           SKY/WX    TMP DP  RH WIND       PRES   REMARKS
OHARE          CLOUDY    87  65  47 SE5       30.02F HX  89
MIDWAY         PTSUNNY   87  67  51 S6        30.02F HX  90
AURORA         MOSUNNY   84  67  56 S8        30.04S HX  86
LANSING*       SUNNY     83  72  68 S3        30.04S HX  89
JOLIET*        MOSUNNY   86  66  51 CALM      30.03S HX  88
WAUKEGAN       MOSUNNY   85  69  58 SE5       30.02F HX  89
DUPAGE AIRPORT MOSUNNY   85  67  54 S6        30.03S HX  87
WHEELING       MOSUNNY   87  70  56 SE6       30.03F HX  92
MORRIS*        MOSUNNY   84  65  51 CALM      30.02F HX  86
LEWIS AIRPORT* MOSUNNY   84  66  53 S6        30.04S HX  86
NORTHERLY ISL    N/A     87  66  49 SE3         N/A  HX  89
$$

WIZ051-052-058>065-066-070>072-211700-
SOUTHEAST WISCONSIN

CITY           SKY/WX    TMP DP  RH WIND       PRES   REMARKS
MILWAUKEE      CLOUDY    80  69  69 CALM      30.03R HX  83
KENOSHA*       MOSUNNY   85  69  58 VRB7      30.04R HX  89
RACINE*        MOSUNNY   81  69  67 VRB6      30.05R HX  84
WAUKESHA       MOSUNNY   75  66  73 NE5       30.05S
$$

INZ001>003-010>013-019-020-211700-
NORTHWEST INDIANA

CITY           SKY/WX    TMP DP  RH WIND       PRES   REMARKS
GARY*          MOSUNNY   84  68  58 S3        30.05S HX  87
MICHIGAN CITY* NOT AVBL
RENSSELAER*    NOT AVBL
VALPARAISO     MOSUNNY   84  73  69 SE8       30.06S HX  90
$$

LMZ740>746-211700-
SOUTHERN LAKE MICHIGAN

STATION/POSITION TIME  SKY/WX   TEMP WIND        PRES    VSBY
                                AIR  DIR/SP/G
                 (UTC)          (F)  (DEG/KT/KT) (MB)    (MI)
HARRISON CRIB    1540            82  190/  8/  8   N/A
BURNHAM HARBOR   NOT AVBL
CALUMET HARBOR   1530            82  190/  5/  7 1016.4R
BURNS HARBOR     1540            82  200/  6/  8 1017.3S
MICHIGAN CITY    1540            80  170/  5/  6   N/A
$$

ABBREVIATIONS USED IN REMARKS
   TC - TEMPERATURE IN CELSIUS
  WCI - WIND CHILL INDEX
   HX - HEAT INDEX
  VSB - VISIBILITY
$$




USA.gov is the U.S. government's official web portal to all federal, state and local government web resources and services.